Theta_e
336 336 336 339 345 348 349 349 350 351 353 354 352 352 353 354 355 355 355 351 344 344 345 343 344 343 344 346 345 348 350 350 355 355 349 348 353 356 356 355 355 355
337 337 337 339 343 345 347 349 350 350 351 352 353 353 353 353 353 352 352 351 345 344 344 342 344 343 343 347 346 345 346 345 351 356 351 346 351 356 356 356 356 355
336 337 337 338 342 344 346 349 350 350 349 350 352 353 354 354 354 350 347 347 347 347 345 342 343 343 342 344 345 345 348 345 347 355 354 347 350 355 357 355 355 356
338 336 335 338 345 347 347 349 350 349 348 348 349 350 351 352 353 352 347 343 344 347 346 342 340 342 341 342 343 344 347 347 346 350 352 349 347 351 356 356 356 356
342 339 336 339 346 349 349 349 349 349 348 348 348 348 349 350 351 353 351 345 341 344 346 344 340 341 341 341 341 342 344 348 349 345 344 345 347 350 354 355 355 355
345 343 340 340 345 348 349 349 348 349 348 347 347 347 347 349 349 351 352 351 347 347 348 348 346 345 345 342 340 340 342 347 351 350 345 343 347 352 354 354 354 354
346 346 344 343 346 346 346 348 349 349 348 347 347 347 346 348 349 348 349 351 351 350 349 350 350 349 349 346 341 338 338 341 346 351 351 348 348 350 353 353 353 353
348 348 346 345 349 349 346 347 349 348 347 346 346 347 346 347 349 348 346 347 350 351 350 349 350 350 350 350 345 338 337 341 345 345 346 347 347 349 350 351 353 352
353 353 349 347 350 351 348 346 347 348 347 346 345 346 346 346 348 348 347 346 346 349 351 351 352 352 349 348 348 342 337 342 347 347 345 344 343 346 347 349 351 352
355 355 354 353 352 351 350 347 346 347 347 346 345 344 344 345 345 346 349 347 342 343 348 349 351 352 349 348 348 345 338 338 342 345 348 346 345 347 349 349 351 352
357 357 356 356 354 352 350 348 345 345 346 346 346 344 342 344 344 344 347 348 343 338 339 340 342 344 344 345 350 349 343 341 341 340 340 339 339 343 345 345 347 349
358 358 356 356 355 353 351 349 347 345 345 346 347 345 343 343 344 345 345 343 337 334 335 333 332 334 335 336 343 349 349 347 346 343 339 335 333 335 338 338 339 341
357 358 357 356 356 355 352 350 349 347 345 345 346 347 345 342 343 345 347 343 333 328 332 335 330 328 329 329 332 341 348 350 349 347 345 342 338 340 343 342 341 341
357 357 357 357 357 356 355 352 350 349 348 347 347 347 347 344 342 342 346 347 341 332 328 331 332 328 327 327 327 331 340 347 348 347 346 346 345 345 345 345 344 344
357 356 357 358 357 357 357 355 353 351 350 349 348 348 347 346 344 343 343 346 347 344 336 334 337 336 333 329 326 326 331 339 346 346 344 344 345 345 345 345 344 343
356 356 357 358 358 358 358 357 356 354 353 352 351 350 350 349 348 347 346 345 347 349 347 344 342 342 340 333 327 325 326 331 338 343 344 344 343 342 343 342 342 342
354 356 356 357 358 359 358 358 357 356 354 354 354 353 352 352 352 350 349 347 347 348 349 349 346 343 342 337 330 326 325 327 331 336 341 343 343 343 342 340 339 339
354 355 356 356 357 358 360 359 357 355 354 354 355 356 355 355 354 353 352 350 349 348 348 348 348 346 345 343 338 331 327 326 329 335 341 343 343 344 344 342 341 340
354 354 356 356 356 357 359 359 357 354 352 353 354 355 356 356 356 355 353 351 350 350 349 349 349 348 347 347 346 342 336 331 329 332 336 339 342 343 344 345 345 343
354 354 354 355 355 356 357 358 358 356 353 353 354 355 355 355 355 356 355 352 350 350 350 350 351 350 349 348 349 348 345 341 337 334 333 334 336 338 341 344 346 346
352 352 352 353 353 353 355 355 356 357 356 355 355 355 356 355 353 354 355 352 350 350 350 351 351 351 350 349 350 349 349 347 346 344 342 339 336 335 335 337 339 343
352 350 350 351 352 353 354 354 353 353 354 355 356 355 356 356 355 355 355 354 353 353 353 353 353 352 351 350 350 350 350 350 351 350 349 347 343 339 336 334 333 335
351 351 349 349 351 352 353 354 353 352 351 353 355 355 356 356 356 357 357 356 357 356 355 354 354 353 352 350 350 350 350 350 351 351 352 351 349 346 343 340 337 335
348 350 350 350 351 353 355 355 355 354 353 354 355 355 357 357 357 356 357 357 357 357 357 355 354 353 352 351 350 351 351 351 351 352 352 352 352 351 349 347 344 342
343 345 348 349 351 352 354 355 356 356 355 355 355 356 356 357 357 357 357 357 356 357 357 357 356 355 354 353 351 351 351 352 352 352 353 353 353 352 352 352 351 348
337 341 343 346 349 351 351 352 354 355 355 354 355 355 356 357 357 357 357 357 357 357 357 357 356 355 355 355 355 353 352 352 353 353 353 353 353 353 353 353 353 352
Wind_Speed
20 19 19 18 17 15 14 14 13 13 13 12 11 10 11 11 10 10 10 9 8 9 9 8 8 7 7 6 6 6 5 5 5 4 3 3 2 2 3 3 3 3
21 20 20 19 18 17 16 15 14 14 14 13 11 11 11 11 11 11 11 10 9 9 9 9 8 7 7 6 6 6 5 5 5 5 5 3 3 3 4 3 3 4
20 21 21 20 19 18 17 16 15 15 14 13 13 12 11 11 12 12 12 11 10 9 9 9 8 8 7 7 7 6 5 5 5 5 6 5 4 4 5 4 3 4
20 20 21 20 19 18 17 16 16 16 15 14 14 14 12 12 12 13 13 13 12 11 10 10 9 9 8 9 8 7 7 7 6 7 7 6 5 6 6 5 5 5
19 20 21 21 20 19 18 18 17 17 16 16 15 14 14 14 13 12 13 14 13 13 12 11 10 10 10 10 9 9 9 8 7 8 8 7 6 6 6 6 7 6
19 19 20 21 21 21 20 19 19 18 17 16 16 15 15 15 15 15 14 14 14 13 12 11 11 11 11 11 11 11 10 9 8 9 9 8 8 7 7 7 8 8
21 20 20 20 21 22 22 21 20 19 18 17 17 17 16 16 17 17 16 16 15 14 14 13 13 13 12 12 12 12 11 10 10 11 10 9 9 8 8 8 9 9
22 20 20 20 21 22 23 22 22 21 20 19 18 18 18 18 18 18 17 17 16 16 15 14 14 15 14 13 13 13 13 12 11 12 12 11 10 10 9 9 10 11
22 22 21 21 21 21 22 22 22 22 22 21 20 19 19 19 19 18 18 19 18 17 17 16 16 17 16 15 15 15 14 13 12 12 12 12 12 11 11 10 11 11
22 23 22 22 22 22 22 22 22 22 22 22 22 20 19 19 20 19 19 20 20 20 19 19 18 19 18 16 16 17 16 15 14 14 13 13 12 11 11 11 11 11
22 22 22 22 23 22 22 22 22 22 21 22 22 21 20 20 20 21 21 21 22 21 21 21 20 20 20 18 17 17 17 17 16 16 16 15 14 13 12 12 12 12
21 22 22 23 23 23 22 22 22 22 21 21 22 22 22 21 20 21 22 23 24 22 22 22 22 21 21 20 19 18 17 17 17 17 17 16 15 15 14 14 14 14
20 21 22 22 23 23 22 22 22 22 22 22 21 21 22 22 21 21 21 23 24 24 23 23 23 23 22 22 21 20 19 18 18 17 17 17 17 16 16 15 15 15
18 20 20 21 22 23 23 23 23 23 23 23 22 22 22 22 22 21 21 22 23 24 24 23 24 24 24 23 23 22 21 21 20 20 19 18 18 18 17 17 17 16
17 18 19 20 22 23 23 23 23 23 23 23 23 22 22 21 21 21 21 21 21 22 23 24 24 24 25 25 25 24 24 23 22 22 21 20 20 19 19 19 18 18
18 18 19 20 21 23 24 24 23 23 23 23 23 23 22 22 22 21 21 22 22 22 22 23 24 24 25 27 27 26 26 25 24 23 23 23 23 22 22 21 21 20
19 20 20 20 20 22 24 24 23 22 23 23 23 23 23 23 23 23 23 23 22 22 22 23 23 23 25 28 29 28 28 27 27 26 25 25 25 25 25 25 24 24
19 20 20 22 22 21 22 23 23 22 23 23 23 23 24 24 24 24 25 24 24 24 23 23 24 23 25 27 29 30 29 29 29 27 25 25 26 26 27 27 27 26
19 19 19 21 23 21 20 21 22 23 22 22 22 22 23 24 24 24 25 25 25 25 25 25 25 24 26 28 30 31 30 30 31 31 28 27 26 26 26 27 27 28
17 18 18 18 18 18 17 19 21 22 21 20 20 21 23 24 24 24 24 25 26 27 27 27 26 26 26 28 30 32 31 30 30 32 33 32 31 30 28 27 27 28
18 18 18 18 17 16 17 19 20 21 21 19 19 20 22 23 23 23 24 25 26 27 28 28 28 28 29 30 31 32 32 30 28 29 32 34 36 36 35 34 32 30
15 16 20 21 19 17 18 19 19 19 20 21 20 19 20 21 22 22 23 24 25 25 26 27 28 29 30 32 33 34 32 30 28 28 30 32 35 38 39 40 40 38
11 15 21 23 21 19 17 17 18 18 18 20 21 21 20 20 21 21 22 22 23 24 25 27 28 28 30 32 33 33 32 31 30 30 30 32 34 36 37 39 41 41
8 14 20 23 22 19 15 15 17 18 17 17 20 22 21 19 19 20 20 21 22 24 25 26 27 28 30 32 33 32 32 31 30 30 31 32 33 34 35 37 39 40
9 10 14 18 21 21 19 16 15 16 16 16 20 22 22 20 19 20 20 21 22 23 24 25 25 27 29 31 32 33 32 30 29 29 30 32 33 34 34 35 36 38
11 11 12 13 15 17 19 19 17 15 16 18 20 21 21 20 20 20 21 22 22 22 24 25 26 28 29 31 33 34 33 31 29 29 30 32 33 33 34 34 35 37
Wind_Direction
209 210 207 206 205 202 203 207 206 204 202 201 203 204 202 201 198 195 202 211 209 207 208 208 210 208 207 213 205 198 209 191 184 227 236 199 210 236 261 278 281 276
210 212 211 209 209 207 204 206 209 210 210 205 201 204 207 208 208 204 204 209 210 210 212 210 211 212 208 216 221 211 216 209 191 221 248 226 210 225 248 267 276 278
212 214 215 211 211 212 208 206 208 210 212 213 208 206 206 207 212 213 210 210 210 211 215 215 212 215 214 217 224 220 221 227 211 219 245 250 230 230 242 250 260 271
213 215 217 214 209 211 210 208 210 210 209 212 214 212 210 208 213 217 217 213 211 212 216 218 216 217 219 218 222 224 223 230 229 221 232 245 242 233 236 242 243 247
214 215 216 215 209 207 209 209 210 212 210 211 213 214 215 214 211 214 220 221 217 216 218 222 223 221 224 223 221 226 227 231 244 243 235 235 242 242 242 245 244 242
213 215 216 216 211 208 209 210 211 211 211 212 211 211 215 218 215 212 217 221 220 219 218 222 227 225 227 229 225 228 231 229 237 251 251 241 239 239 242 250 251 249
212 215 216 216 213 211 212 211 212 213 211 212 213 212 212 217 221 218 217 219 218 218 217 218 225 225 224 230 231 230 233 232 227 233 242 243 241 238 236 245 251 252
210 212 216 217 212 212 214 213 213 215 212 210 212 214 213 214 220 222 221 220 218 218 218 216 222 227 223 225 232 235 234 235 234 235 238 240 241 243 241 241 247 252
207 208 213 216 211 210 213 213 214 216 215 213 211 213 216 216 218 219 221 224 221 218 219 217 219 227 228 224 229 237 237 232 231 237 245 247 244 246 249 248 248 251
206 206 208 212 210 209 212 212 213 214 215 216 213 212 216 218 220 217 217 224 226 221 221 221 220 225 229 227 228 236 240 237 232 232 237 244 244 243 245 247 248 250
205 206 206 209 209 210 212 211 211 212 213 215 215 214 214 217 222 221 215 221 228 228 228 229 229 230 232 230 227 234 241 241 239 239 240 241 240 237 236 238 240 243
204 207 208 210 210 211 213 213 212 212 212 214 215 215 214 213 218 221 219 223 230 233 233 234 237 237 238 237 230 230 237 240 239 242 244 243 242 242 243 244 246 247
208 211 211 213 213 213 214 214 215 214 213 214 215 215 215 214 215 217 220 226 233 236 234 236 239 240 241 242 237 230 231 236 237 237 239 242 243 244 244 247 250 252
213 214 215 215 215 216 216 215 216 217 216 216 217 216 216 217 217 218 220 224 231 236 236 235 239 242 242 242 242 238 233 233 235 235 235 238 241 243 242 244 247 249
215 216 216 216 215 216 216 216 217 218 218 218 217 219 219 219 220 221 221 223 226 232 236 234 233 237 241 242 243 242 239 236 236 237 238 238 239 242 243 244 247 249
218 218 218 216 216 215 215 216 216 217 219 220 219 220 220 221 221 221 223 224 224 228 231 232 229 229 235 241 243 244 243 240 237 237 240 241 241 243 245 246 248 250
226 225 223 219 218 217 215 217 217 215 216 217 219 221 221 221 222 223 225 226 226 228 230 231 232 230 234 241 245 244 243 243 241 240 240 242 244 245 246 249 251 251
233 231 230 224 219 218 219 220 221 220 217 215 216 218 218 220 222 224 228 229 228 229 231 233 235 234 235 242 247 247 244 242 242 241 240 241 244 246 248 250 251 251
234 231 235 232 224 220 220 225 230 232 228 221 218 218 219 221 224 226 230 234 233 231 231 233 235 237 238 241 247 251 249 245 242 241 240 240 243 245 248 250 251 252
241 232 235 243 241 232 226 227 233 238 238 231 224 221 221 223 226 227 231 235 236 234 233 233 233 233 236 240 246 252 253 250 246 244 243 243 242 243 244 246 250 252
251 240 239 248 252 244 237 236 237 238 239 237 230 225 225 228 230 230 232 237 240 238 237 236 234 233 233 235 241 248 252 253 250 247 246 246 246 246 245 245 247 248
254 245 244 246 245 241 240 241 240 240 242 242 239 232 229 230 232 231 232 236 240 239 237 236 236 236 236 237 239 243 249 252 251 248 246 246 247 248 249 249 250 250
244 236 241 243 242 242 244 241 241 244 248 247 245 241 236 232 232 232 232 232 233 236 238 239 239 239 239 241 242 244 246 248 249 248 247 247 247 249 250 252 253 253
262 240 242 243 240 239 240 240 240 244 247 247 246 245 241 236 232 233 233 233 232 234 237 241 243 245 245 244 244 244 245 246 248 249 250 249 249 250 250 252 254 255
310 279 261 251 243 240 240 240 240 238 239 244 248 248 246 241 236 234 234 235 234 235 236 237 239 244 248 249 248 247 246 246 248 249 250 250 250 251 252 253 254 256
328 318 298 276 259 248 244 243 244 240 235 236 243 247 246 242 240 239 239 238 236 236 237 238 239 242 245 247 248 248 246 244 245 248 250 251 251 251 253 254 256 258